Regional Weather Roundup
Issued by NWS Newport/Morehead, NC

Current Version | Previous Version | Graphics & Text | Print | Product List | Glossary On
Versions: 1 2 3 4 5 6 7 8 9 10 11 12 13 14 15 16 17 18 19 20 21 22 23 24 25 26 27 28 29 30 31 32 33 34 35 36 37 38 39 40 41 42 43 44 45 46 47 48 49 50
000 ASUS42 KMHX 281213 RWRMHX WEATHER ROUNDUP FOR EASTERN NORTH CAROLINA NATIONAL WEATHER SERVICE NEWPORT/MOREHEAD CITY NC 800 AM EDT SAT MAY 28 2016 NOTE: "FAIR" INDICATES FEW OR NO CLOUDS BELOW 12,000 FEET WITH NO SIGNIFICANT WEATHER AND/OR OBSTRUCTIONS TO VISIBILITY NCZ015>017-031-032-045>047-102-103-281300- NORTH COAST CITY SKY/WX TMP DP RH WIND PRES REMARKS EDENTON MOSUNNY N/A N/A N/A CALM 30.19S ELIZABETH CITY SUNNY 72 68 87 NE3 30.19R KITTY HAWK MOSUNNY 69 67 91 CALM 30.18R MANTEO NOT AVBL $$ NCZ045>047-081-094-103-104-281300- CENTRAL COAST CITY SKY/WX TMP DP RH WIND PRES REMARKS FRISCO SUNNY 77 69 76 SE6 30.17R $$ NCZ095-097-098-100-101-281300- SOUTHERN COAST CITY SKY/WX TMP DP RH WIND PRES REMARKS BEAUFORT SUNNY 75 70 84 NE5 30.15S CEDAR ISLAND NOT AVBL JACKSONVILLE SUNNY 73 67 81 E3 30.15R PINEY ISLAND MOSUNNY N/A N/A N/A E7 30.16R WILMINGTON MOSUNNY 71 67 87 NE9 30.13S $$ NCZ011>013-027>030-043-044-078>080-089-090>093-098-281300- COASTAL PLAIN CITY SKY/WX TMP DP RH WIND PRES REMARKS AHOSKIE SUNNY 64 62 92 CALM 30.19S CLINTON SUNNY 67 65 91 E3 30.17R ELIZABETHTOWN SUNNY 64 63 97 CALM 30.16R GOLDSBORO SUNNY 68 68 100 VRB1 30.16R GREENVILLE SUNNY 64 63 94 CALM 30.18F HAVELOCK MOSUNNY 75 70 84 NE6 30.16S KENANSVILLE CLOUDY 67 64 89 CALM 30.18R KINSTON SUNNY 68 64 88 CALM 30.18R NEW BERN SUNNY 72 68 87 NE6 30.18R RICHLANDS MOSUNNY 69 66 90 N5 30.16S ROCKY MOUNT SUNNY 67 62 84 CALM 30.18S WASHINGTON SUNNY 66 64 91 CALM 30.18R WHITEVILLE MOSUNNY 67 65 91 NE3 30.14S $$ AMZ130-135-150-152-154-156-158-170-250-252-270-ANZ085-086-088-633-658-670-281300- MARINE OBSERVATIONS STATION/POSITION TIME TEMP WIND PRES WAVE SWELL AIR SEA DIR/SP/G HT/PER HT/PER (UTC) (F) (DEG/KT/KT) (MB) (FT/S) (FT/S) CHESAPEAKE LIGHT 1200 68 180/ 8/ 8 1023.1 64 E VA BEACH 1150 67 61 90/ 4/ 6 1022.5 3/ 8 3/ 8 DUCK 1100 63 59 60/ 2/ 4 1021.3 2 E DUCK 1111 62 N/A 2/ 8 OREGON INLET 1100 69 72 50/ 5/ 6 1021.6 13E OREGON INLT 1100 70 N/A 3/ 9 3/ 9 HATTERAS CG 1100 75 74 110/ 5/ 7 1020.9 DIAMOND BUOY 1150 77 78 110/ 12/ 16 1021.2 4/ 9 3/ 9 CAPE LOOKOUT 1200 75 80/ 8/ 9 1020.7 BEAUFORT LAB 1100 71 73 20/ 4/ 5 1020.0 30 SE NEW RVR IN 1125 74 N/A 5/ 9 27 SE WRIGHTSVLE 1108 76 74 90/ 10/ 14 1019.4 5 SE WRIGHTSVLE 1108 75 74 60/ 10/ 12 1020.7 225 S CAPE HAT 1150 77 77 90/ 16/ 17 1018.3 4/ 8 3/ 8 41 SE CHARLESTON 1150 77 76 50/ 14/ 16 1017.3 5/10 3/10 $$

USA.gov is the U.S. government's official web portal to all federal, state and local government web resources and services.